• In Moldova, Republic
  • List of Countries
  • For 7 days
  • Water Temperature
  • Satellite Maps
  • Weather Map
  • Weather Widgets
  • user-avatar
    Login

    Hourly Weather Tibissa

    Today, 21 October, Saturday

    Time Temperature Precipitation Wind Pressure Humidity
    00:00 +14°C° 0.1 mm 5 mps 687 mmHg 81%
    01:00 +14°C° 0.1 mm 5 mps 687 mmHg 81%
    02:00 +14°C° 0 mm 5 mps 687 mmHg 82%
    03:00 +14°C° 0 mm 5 mps 687 mmHg 83%
    04:00 +14°C° 0 mm 5 mps 687 mmHg 83%
    05:00 +14°C° 0 mm 5 mps 687 mmHg 83%
    06:00 +14°C° 0 mm 5 mps 687 mmHg 83%
    07:00 +14°C° 0 mm 5 mps 688 mmHg 83%
    08:00 +14°C° 0 mm 5 mps 688 mmHg 80%
    09:00 +15°C° 0 mm 5 mps 689 mmHg 78%
    10:00 +15°C° 0 mm 6 mps 689 mmHg 75%
    11:00 +16°C° 0 mm 5 mps 689 mmHg 72%
    12:00 +17°C° 0 mm 5 mps 689 mmHg 69%
    13:00 +17°C° 0 mm 5 mps 689 mmHg 66%
    14:00 +19°C° 0 mm 5 mps 689 mmHg 66%
    15:00 +19°C° 0 mm 4 mps 689 mmHg 65%
    16:00 +19°C° 0 mm 4 mps 689 mmHg 64%
    17:00 +18°C° 0 mm 3 mps 689 mmHg 68%
    18:00 +18°C° 0 mm 3 mps 689 mmHg 71%
    19:00 +17°C° 0 mm 2 mps 689 mmHg 74%
    20:00 +17°C° 0 mm 2 mps 690 mmHg 77%
    21:00 +16°C° 0 mm 2 mps 690 mmHg 80%
    22:00 +16°C° 0 mm 1 mps 690 mmHg 83%
    23:00 +16°C° 0 mm 1 mps 690 mmHg 85%

    Tomorrow, 22 October, Sunday

    Time Temperature Precipitation Wind Pressure Humidity
    00:00 +15°C° 0 mm 1 mps 690 mmHg 87%
    01:00 +15°C° 0 mm 1 mps 690 mmHg 89%
    02:00 +15°C° 0 mm 1 mps 690 mmHg 90%
    03:00 +15°C° 0 mm 1 mps 689 mmHg 91%
    04:00 +13°C° 0 mm 0 mps 689 mmHg 92%
    05:00 +13°C° 0 mm 0 mps 689 mmHg 92%
    06:00 +13°C° 0 mm 0 mps 689 mmHg 92%
    07:00 +14°C° 0 mm 1 mps 689 mmHg 92%
    08:00 +15°C° 0 mm 1 mps 689 mmHg 84%
    09:00 +18°C° 0 mm 1 mps 690 mmHg 75%
    10:00 +19°C° 0 mm 1 mps 690 mmHg 67%
    11:00 +19°C° 0 mm 2 mps 690 mmHg 61%
    12:00 +20°C° 0 mm 2 mps 690 mmHg 55%
    13:00 +21°C° 0 mm 3 mps 690 mmHg 50%
    14:00 +21°C° 0 mm 3 mps 690 mmHg 49%
    15:00 +21°C° 0 mm 3 mps 689 mmHg 49%
    16:00 +21°C° 0 mm 3 mps 689 mmHg 48%
    17:00 +21°C° 0 mm 3 mps 689 mmHg 52%
    18:00 +20°C° 0 mm 4 mps 689 mmHg 57%
    19:00 +19°C° 0 mm 4 mps 689 mmHg 61%
    20:00 +18°C° 0 mm 3 mps 689 mmHg 65%
    21:00 +18°C° 0 mm 3 mps 689 mmHg 69%
    22:00 +17°C° 0 mm 3 mps 689 mmHg 73%
    23:00 +16°C° 0 mm 3 mps 689 mmHg 76%

    Day after tomorrow, 23 October, Monday

    Time Temperature Precipitation Wind Pressure Humidity
    00:00 +16°C° 0 mm 3 mps 689 mmHg 79%
    01:00 +16°C° 0 mm 3 mps 689 mmHg 82%
    02:00 +14°C° 0 mm 3 mps 688 mmHg 84%
    03:00 +14°C° 0 mm 3 mps 688 mmHg 86%
    04:00 +14°C° 0 mm 3 mps 688 mmHg 88%
    05:00 +14°C° 0 mm 3 mps 688 mmHg 87%
    06:00 +13°C° 0 mm 3 mps 688 mmHg 86%
    07:00 +13°C° 0 mm 3 mps 688 mmHg 85%
    08:00 +14°C° 0 mm 4 mps 688 mmHg 79%
    09:00 +15°C° 0 mm 5 mps 689 mmHg 72%
    10:00 +16°C° 0 mm 6 mps 689 mmHg 66%
    11:00 +16°C° 0 mm 7 mps 689 mmHg 62%
    12:00 +17°C° 0 mm 7 mps 689 mmHg 57%
    13:00 +18°C° 0 mm 8 mps 689 mmHg 53%
    14:00 +17°C° 0 mm 8 mps 688 mmHg 52%
    15:00 +17°C° 0 mm 8 mps 688 mmHg 52%
    16:00 +17°C° 0 mm 9 mps 688 mmHg 51%
    17:00 +16°C° 0 mm 8 mps 688 mmHg 57%
    18:00 +15°C° 0 mm 8 mps 688 mmHg 63%
    19:00 +13°C° 0 mm 8 mps 688 mmHg 68%
    20:00 +13°C° 0 mm 8 mps 688 mmHg 70%
    21:00 +12°C° 0 mm 8 mps 688 mmHg 72%
    22:00 +12°C° 0 mm 9 mps 688 mmHg 74%
    23:00 +11°C° 0 mm 9 mps 688 mmHg 75%

    24 October, Tuesday

    Time Temperature Precipitation Wind Pressure Humidity
    00:00 +11°C° 0 mm 9 mps 688 mmHg 76%
    01:00 +11°C° 0 mm 9 mps 688 mmHg 77%
    02:00 +11°C° 0 mm 9 mps 688 mmHg 77%
    03:00 +9°C° 0 mm 10 mps 688 mmHg 78%
    04:00 +9°C° 0 mm 10 mps 687 mmHg 78%
    05:00 +11°C° 0 mm 10 mps 688 mmHg 78%
    06:00 +11°C° 0 mm 9 mps 688 mmHg 78%
    07:00 +11°C° 0 mm 9 mps 688 mmHg 78%
    08:00 +11°C° 0 mm 9 mps 688 mmHg 75%
    09:00 +12°C° 0 mm 9 mps 689 mmHg 73%
    10:00 +13°C° 0 mm 9 mps 689 mmHg 70%
    11:00 +15°C° 0 mm 9 mps 689 mmHg 67%
    12:00 +15°C° 0 mm 8 mps 689 mmHg 65%
    13:00 +16°C° 0 mm 8 mps 689 mmHg 63%
    14:00 +16°C° 0 mm 8 mps 688 mmHg 64%
    15:00 +16°C° 0 mm 8 mps 688 mmHg 64%
    16:00 +16°C° 0 mm 8 mps 688 mmHg 65%
    17:00 +15°C° 0 mm 7 mps 688 mmHg 68%
    18:00 +14°C° 0 mm 6 mps 688 mmHg 72%
    19:00 +14°C° 0 mm 6 mps 688 mmHg 75%
    20:00 +14°C° 0 mm 5 mps 688 mmHg 78%
    21:00 +13°C° 0 mm 5 mps 689 mmHg 80%
    22:00 +13°C° 0 mm 4 mps 689 mmHg 83%
    23:00 +13°C° 0 mm 4 mps 689 mmHg 83%

    25 October, Wednesday

    Time Temperature Precipitation Wind Pressure Humidity
    00:00 +13°C° 0 mm 4 mps 688 mmHg 84%
    01:00 +12°C° 0 mm 4 mps 688 mmHg 85%
    02:00 +12°C° 0 mm 5 mps 688 mmHg 84%
    03:00 +12°C° 0 mm 5 mps 688 mmHg 83%
    04:00 +13°C° 0 mm 5 mps 688 mmHg 83%
    05:00 +12°C° 0 mm 5 mps 688 mmHg 83%
    06:00 +12°C° 0 mm 5 mps 688 mmHg 84%
    07:00 +12°C° 0 mm 5 mps 688 mmHg 85%
    08:00 +13°C° 0 mm 6 mps 689 mmHg 78%
    09:00 +14°C° 0 mm 6 mps 689 mmHg 72%
    10:00 +15°C° 0 mm 7 mps 690 mmHg 66%
    11:00 +16°C° 0 mm 7 mps 690 mmHg 57%
    12:00 +17°C° 0 mm 7 mps 690 mmHg 49%
    13:00 +18°C° 0 mm 7 mps 690 mmHg 41%
    14:00 +18°C° 0 mm 7 mps 690 mmHg 39%
    15:00 +18°C° 0 mm 7 mps 690 mmHg 37%
    16:00 +18°C° 0 mm 7 mps 690 mmHg 35%
    17:00 +17°C° 0 mm 6 mps 690 mmHg 38%
    18:00 +16°C° 0 mm 5 mps 690 mmHg 42%
    19:00 +15°C° 0 mm 4 mps 690 mmHg 45%
    20:00 +14°C° 0 mm 3 mps 690 mmHg 48%
    21:00 +14°C° 0 mm 2 mps 690 mmHg 50%
    22:00 +14°C° 0 mm 2 mps 691 mmHg 52%
    23:00 +13°C° 0 mm 2 mps 691 mmHg 52%

    26 October, Thursday

    Time Temperature Precipitation Wind Pressure Humidity
    00:00 +13°C° 0 mm 2 mps 690 mmHg 52%
    01:00 +12°C° 0 mm 1 mps 690 mmHg 52%
    02:00 +12°C° 0 mm 1 mps 690 mmHg 50%
    03:00 +12°C° 0 mm 1 mps 690 mmHg 48%
    04:00 +12°C° 0 mm 1 mps 690 mmHg 46%
    05:00 +11°C° 0 mm 1 mps 690 mmHg 44%
    06:00 +11°C° 0 mm 1 mps 690 mmHg 42%
    07:00 +11°C° 0 mm 1 mps 690 mmHg 41%
    08:00 +13°C° 0 mm 1 mps 691 mmHg 34%
    09:00 +16°C° 0 mm 1 mps 692 mmHg 28%
    10:00 +19°C° 0 mm 1 mps 693 mmHg 21%
    11:00 +20°C° 0 mm 1 mps 693 mmHg 20%
    12:00 +21°C° 0 mm 1 mps 693 mmHg 18%
    13:00 +22°C° 0 mm 1 mps 693 mmHg 16%
    14:00 +23°C° 0 mm 1 mps 692 mmHg 16%
    15:00 +23°C° 0 mm 1 mps 692 mmHg 16%
    16:00 +23°C° 0 mm 2 mps 692 mmHg 17%
    17:00 +21°C° 0 mm 1 mps 692 mmHg 21%
    18:00 +20°C° 0 mm 1 mps 692 mmHg 25%
    19:00 +19°C° 0 mm 1 mps 692 mmHg 30%
    20:00 +18°C° 0 mm 1 mps 692 mmHg 32%
    21:00 +16°C° 0 mm 1 mps 692 mmHg 34%
    22:00 +15°C° 0 mm 0 mps 692 mmHg 36%
    23:00 +15°C° 0 mm 1 mps 692 mmHg 37%
    Show more